Grosse Ile, MI

11:41 AM EDT on September 25, 2017 (GMT -0400)
Grosse Ile Municipal

Weather History for KONZ - June, 2013

Change the Weather History Date:

Saturday, June 8, 2013

  Actual Average (KDTW) Record (KDTW)
Temperature  
Mean Temperature 62 °F -  
Max Temperature 68 °F 78 °F 100 °F (1933)
Min Temperature 57 °F 56 °F 39 °F (1949)
Degree Days  
Heating Degree Days 2    
Growing Degree Days 12 (Base 50)    
Moisture  
Dew Point 53 °F    
Average Humidity 72    
Maximum Humidity 82    
Minimum Humidity 60    
Precipitation  
Precipitation 0.00 in - - ()
Sea Level Pressure  
Sea Level Pressure 29.98 in    
Wind  
Wind Speed 2 mph (ESE)    
Max Wind Speed 10 mph    
Max Gust Speed -    
Visibility 10 miles    
Events      
Averages and records for this station are not official NWS values.
T = Trace of Precipitation, MM = Missing Value Source: NWS Daily Summary

Daily Weather History Graph

Daily Weather History Graph

Search for Another Location

Airport or City:

Trip Planner

Search our weather history database for the weather conditions in past years. The results will help you decide how hot, cold, wet, or windy it might be!

Date:

Astronomy

Jun. 08, 2013 Rise Set
Actual Time 5:56 AM EDT 9:07 PM EDT
Civil Twilight 5:22 AM EDT 9:41 PM EDT
Nautical Twilight 4:38 AM EDT 10:25 PM EDT
Astronomical Twilight 3:46 AM EDT 11:18 PM EDT
Moon 6:04 AM EDT (6/8) 9:07 PM EDT (6/8)
Length of Visible Light 16h 18m
Length of Day
15h 10m
New Moon, 0% of the Moon is Illuminated
Jun 8
New Moon
Jun 16
First Quarter
Jun 23
Full
Jun 30
Last Quarter
Jul 8
New

Hourly Weather History & Observations

Time (EDT) Temp. Dew Point Humidity Pressure Visibility Wind Dir Wind Speed Gust Speed Precip Events Conditions
12:15 AM 59.0 °F 51.8 °F 77% 29.90 in 10.0 mi NE 3.5 mph - N/A   Overcast
12:34 AM 59.0 °F 51.8 °F 77% 29.90 in 10.0 mi NNE 3.5 mph - N/A   Overcast
12:54 AM 59.0 °F 51.8 °F 77% 29.90 in 10.0 mi Calm Calm - N/A   Overcast
1:14 AM 59.0 °F 53.6 °F 82% 29.90 in 10.0 mi Calm Calm - N/A   Overcast
1:34 AM 59.0 °F 53.6 °F 82% 29.90 in 10.0 mi Calm Calm - N/A   Overcast
1:54 AM 59.0 °F 53.6 °F 82% 29.90 in 10.0 mi Calm Calm - N/A   Overcast
2:14 AM 59.0 °F 53.6 °F 82% 29.90 in 10.0 mi Calm Calm - N/A   Overcast
2:34 AM 59.0 °F 51.8 °F 77% 29.90 in 10.0 mi Calm Calm - N/A   Overcast
2:54 AM 59.0 °F 51.8 °F 77% 29.90 in 10.0 mi Calm Calm - N/A   Overcast
3:14 AM 59.0 °F 51.8 °F 77% 29.91 in 10.0 mi Calm Calm - N/A   Overcast
3:35 AM 59.0 °F 51.8 °F 77% 29.90 in 10.0 mi Calm Calm - N/A   Overcast
3:54 AM 57.2 °F 51.8 °F 82% 29.90 in 10.0 mi Calm Calm - N/A   Overcast
4:14 AM 57.2 °F 51.8 °F 82% 29.91 in 10.0 mi Calm Calm - N/A   Overcast
4:34 AM 59.0 °F 50.0 °F 72% 29.91 in 10.0 mi Calm Calm - N/A   Overcast
4:54 AM 59.0 °F 50.0 °F 72% 29.91 in 10.0 mi Calm Calm - N/A   Overcast
5:14 AM 57.2 °F 51.8 °F 82% 29.91 in 10.0 mi Calm Calm - N/A   Overcast
5:34 AM 57.2 °F 51.8 °F 82% 29.91 in 10.0 mi Calm Calm - N/A   Overcast
5:54 AM 59.0 °F 51.8 °F 77% 29.92 in 10.0 mi Calm Calm - N/A   Overcast
6:14 AM 59.0 °F 51.8 °F 77% 29.93 in 10.0 mi Calm Calm - N/A   Overcast
6:34 AM 59.0 °F 51.8 °F 77% 29.94 in 10.0 mi Calm Calm - N/A   Overcast
6:54 AM 59.0 °F 51.8 °F 77% 29.95 in 10.0 mi Calm Calm - N/A   Overcast
7:15 AM 59.0 °F 51.8 °F 77% 29.96 in 10.0 mi Calm Calm - N/A   Overcast
7:34 AM 59.0 °F 51.8 °F 77% 29.96 in 10.0 mi Calm Calm - N/A   Overcast
7:54 AM 59.0 °F 51.8 °F 77% 29.96 in 10.0 mi Calm Calm - N/A   Overcast
8:15 AM 59.0 °F 51.8 °F 77% 29.96 in 10.0 mi North 3.5 mph - N/A   Overcast
8:34 AM 59.0 °F 51.8 °F 77% 29.97 in 10.0 mi Calm Calm - N/A   Overcast
8:54 AM 60.8 °F 51.8 °F 72% 29.97 in 10.0 mi Calm Calm - N/A   Overcast
9:15 AM 60.8 °F 51.8 °F 72% 29.98 in 10.0 mi Calm Calm - N/A   Overcast
9:34 AM 60.8 °F 51.8 °F 72% 29.99 in 10.0 mi NNE 3.5 mph - N/A   Overcast
9:54 AM 60.8 °F 51.8 °F 72% 29.99 in 10.0 mi Calm Calm - N/A   Overcast
10:14 AM 60.8 °F 51.8 °F 72% 29.99 in 10.0 mi Calm Calm - N/A   Overcast
10:34 AM 62.6 °F 51.8 °F 68% 30.00 in 10.0 mi Calm Calm - N/A   Overcast
10:54 AM 62.6 °F 51.8 °F 68% 30.00 in 10.0 mi Calm Calm - N/A   Overcast
11:14 AM 62.6 °F 51.8 °F 68% 30.00 in 10.0 mi Calm Calm - N/A   Overcast
11:34 AM 62.6 °F 51.8 °F 68% 30.00 in 10.0 mi Calm Calm - N/A   Overcast
11:54 AM 64.4 °F 51.8 °F 64% 30.00 in 10.0 mi East 3.5 mph - N/A   Overcast
12:14 PM 64.4 °F 51.8 °F 64% 30.01 in 10.0 mi North 3.5 mph - N/A   Overcast
12:34 PM 66.2 °F 51.8 °F 60% 30.02 in 10.0 mi NNE 3.5 mph - N/A   Overcast
12:54 PM 66.2 °F 51.8 °F 60% 30.01 in 10.0 mi ENE 5.8 mph - N/A   Overcast
1:14 PM 66.2 °F 51.8 °F 60% 30.01 in 10.0 mi ENE 5.8 mph - N/A   Overcast
1:34 PM 64.4 °F 51.8 °F 64% 30.00 in 10.0 mi ENE 5.8 mph - N/A   Overcast
1:54 PM 66.2 °F 51.8 °F 60% 29.99 in 10.0 mi NE 6.9 mph - N/A   Mostly Cloudy
2:14 PM 66.2 °F 51.8 °F 60% 29.99 in 10.0 mi East 3.5 mph - N/A   Overcast
2:34 PM 66.2 °F 51.8 °F 60% 29.99 in 10.0 mi East 5.8 mph - N/A   Overcast
2:54 PM 66.2 °F 53.6 °F 64% 30.00 in 10.0 mi South 6.9 mph - N/A   Overcast
3:14 PM 68.0 °F 53.6 °F 60% 29.99 in 10.0 mi South 5.8 mph - N/A   Mostly Cloudy
3:33 PM 68.0 °F 53.6 °F 60% 29.99 in 10.0 mi South 9.2 mph - N/A   Scattered Clouds
3:54 PM 68.0 °F 53.6 °F 60% 30.00 in 10.0 mi South 10.4 mph - N/A   Scattered Clouds
4:14 PM 66.2 °F 55.4 °F 68% 30.00 in 10.0 mi South 9.2 mph - N/A   Scattered Clouds
4:34 PM 66.2 °F 53.6 °F 64% 30.00 in 10.0 mi South 9.2 mph - N/A   Scattered Clouds
4:54 PM 66.2 °F 55.4 °F 68% 30.00 in 10.0 mi South 6.9 mph - N/A   Scattered Clouds
5:14 PM 66.2 °F 53.6 °F 64% 30.01 in 10.0 mi SSE 6.9 mph - N/A   Clear
5:34 PM 66.2 °F 55.4 °F 68% 30.01 in 10.0 mi South 6.9 mph - N/A   Clear
5:54 PM 66.2 °F 55.4 °F 68% 30.01 in 10.0 mi SSE 6.9 mph - N/A   Clear
6:14 PM 66.2 °F 55.4 °F 68% 30.01 in 10.0 mi SSE 5.8 mph - N/A   Clear
6:34 PM 66.2 °F 55.4 °F 68% 30.01 in 10.0 mi SSE 6.9 mph - N/A   Clear
6:54 PM 66.2 °F 55.4 °F 68% 30.01 in 10.0 mi SSE 5.8 mph - N/A   Clear
7:14 PM 66.2 °F 55.4 °F 68% 30.02 in 10.0 mi SSE 4.6 mph - N/A   Clear
7:34 PM 66.2 °F 53.6 °F 64% 30.02 in 10.0 mi Calm Calm - N/A   Clear
7:55 PM 66.2 °F 55.4 °F 68% 30.02 in 10.0 mi Calm Calm - N/A   Clear
8:14 PM 66.2 °F 55.4 °F 68% 30.03 in 10.0 mi Calm Calm - N/A   Clear
8:34 PM 64.4 °F 55.4 °F 73% 30.03 in 10.0 mi Calm Calm - N/A   Clear
8:54 PM 64.4 °F 55.4 °F 73% 30.03 in 10.0 mi Calm Calm - N/A   Clear
9:14 PM 64.4 °F 55.4 °F 73% 30.04 in 10.0 mi Calm Calm - N/A   Clear
9:35 PM 62.6 °F 55.4 °F 77% 30.04 in 10.0 mi SE 3.5 mph - N/A   Scattered Clouds
9:54 PM 62.6 °F 55.4 °F 77% 30.05 in 10.0 mi Calm Calm - N/A   Scattered Clouds
10:14 PM 62.6 °F 55.4 °F 77% 30.06 in 10.0 mi ESE 4.6 mph - N/A   Clear
10:34 PM 62.6 °F 55.4 °F 77% 30.07 in 10.0 mi Calm Calm - N/A   Clear
10:54 PM 62.6 °F 55.4 °F 77% 30.08 in 10.0 mi Calm Calm - N/A   Clear
11:14 PM 60.8 °F 55.4 °F 82% 30.07 in 10.0 mi Calm Calm - N/A   Scattered Clouds
11:34 PM 62.6 °F 55.4 °F 77% 30.07 in 10.0 mi SE 3.5 mph - N/A   Clear
11:54 PM 60.8 °F 55.4 °F 82% 30.07 in 10.0 mi Calm Calm - N/A   Clear